User: anonymous   Login
Location: Unspecified
(0.0000°N, 0.0000°E)
Time: 20:27:28
(UTC+00:00)
Language:

NNS O-2 - Orbit

View from above orbital plane
View from above orbital plane
View from above satellite
View from above satellite

Ground track
Ground track

The orbit data is extracted from the following two-line orbital elements,

1   965U 64083D   24337.08581524  .00000141  00000-0  18442-3 0  9991
2   965  90.0522 199.1893 0042952 120.3534  32.3452 13.56930254967942
Epoch (UTC): 02 December 2024 02:03:34
Eccentricity: 0.0042952
inclination: 90.0522°
perigee height: 1015 km
apogee height: 1079 km
right ascension of ascending node: 199.1893°
argument of perigee: 120.3534°
revolutions per day: 13.56930254
mean anomaly at epoch: 32.3452°
orbit number at epoch: 96794

The dashed part of the orbit path shows where the satellite is in the earth's shadow,  

DLR